TimeEDT,TemperatureF,Dew PointF,Humidity,Sea Level PressureIn,VisibilityMPH,Wind Direction,Wind SpeedMPH,Gust SpeedMPH,PrecipitationIn,Events,Conditions,WindDirDegrees,DateUTC
12:14 AM,59.0,57.2,94,30.05,7.0,Calm,Calm,-,N/A,,Overcast,0,2012-10-03 04:14:00
12:53 AM,59.0,57.0,93,30.03,5.0,NNE,3.5,-,N/A,,Overcast,20,2012-10-03 04:53:00
1:34 AM,59.0,57.2,94,30.05,6.0,Calm,Calm,-,N/A,,Overcast,0,2012-10-03 05:34:00
1:53 AM,59.0,57.0,93,30.04,6.0,Calm,Calm,-,N/A,,Overcast,0,2012-10-03 05:53:00
2:05 AM,59.0,57.2,94,30.05,6.0,Calm,Calm,-,N/A,,Overcast,0,2012-10-03 06:05:00
2:25 AM,59.0,57.2,94,30.05,5.0,Calm,Calm,-,N/A,,Overcast,0,2012-10-03 06:25:00
2:38 AM,59.0,57.2,94,30.05,1.8,Calm,Calm,-,N/A,,Overcast,0,2012-10-03 06:38:00
2:53 AM,60.1,57.0,90,30.03,2.0,Calm,Calm,-,N/A,,Overcast,0,2012-10-03 06:53:00
3:01 AM,60.8,57.2,88,30.05,3.0,Calm,Calm,-,N/A,,Overcast,0,2012-10-03 07:01:00
3:41 AM,59.0,57.2,94,30.04,2.0,Calm,Calm,-,N/A,,Overcast,0,2012-10-03 07:41:00
3:53 AM,59.0,57.0,93,30.03,2.5,Calm,Calm,-,N/A,,Overcast,0,2012-10-03 07:53:00
4:05 AM,59.0,57.2,94,30.05,4.0,Calm,Calm,-,N/A,,Overcast,0,2012-10-03 08:05:00
4:53 AM,60.1,57.0,90,30.04,3.0,Calm,Calm,-,N/A,,Overcast,0,2012-10-03 08:53:00
5:09 AM,59.0,57.2,94,30.05,1.8,Calm,Calm,-,N/A,,Overcast,0,2012-10-03 09:09:00
5:28 AM,59.0,57.2,94,30.05,2.5,Calm,Calm,-,N/A,,Overcast,0,2012-10-03 09:28:00
5:53 AM,59.0,57.0,93,30.05,4.0,Calm,Calm,-,N/A,,Overcast,0,2012-10-03 09:53:00
6:53 AM,59.0,57.0,93,30.07,1.8,Calm,Calm,-,0.05,Rain,Heavy Rain,0,2012-10-03 10:53:00
7:30 AM,59.0,57.2,94,30.08,4.0,Variable,3.5,-,0.12,Rain,Light Rain,0,2012-10-03 11:30:00
7:42 AM,59.0,57.2,94,30.07,6.0,Calm,Calm,-,0.12,,Overcast,0,2012-10-03 11:42:00
7:53 AM,60.1,57.0,90,30.06,7.0,Calm,Calm,-,0.12,,Overcast,0,2012-10-03 11:53:00
8:53 AM,59.0,57.0,93,30.09,0.8,NW,4.6,-,0.06,Rain,Heavy Rain,310,2012-10-03 12:53:00
9:00 AM,59.0,57.2,94,30.10,1.0,Calm,Calm,-,0.03,Rain,Rain,0,2012-10-03 13:00:00
9:10 AM,59.0,57.2,94,30.10,1.8,Calm,Calm,-,0.05,Rain,Light Rain,0,2012-10-03 13:10:00
9:29 AM,60.8,57.2,88,30.11,1.8,NNW,3.5,-,0.06,Rain,Light Rain,330,2012-10-03 13:29:00
9:53 AM,60.1,57.9,93,30.10,3.0,North,4.6,-,0.09,Rain,Light Rain,360,2012-10-03 13:53:00
10:48 AM,60.8,59.0,94,30.11,2.5,Calm,Calm,-,0.03,Rain,Light Rain,0,2012-10-03 14:48:00
10:53 AM,61.0,59.0,93,30.09,4.0,Calm,Calm,-,0.03,Rain,Light Rain,0,2012-10-03 14:53:00
11:10 AM,60.8,59.0,94,30.10,2.5,Calm,Calm,-,0.01,Rain,Light Rain,0,2012-10-03 15:10:00
11:22 AM,62.6,59.0,88,30.10,2.5,Calm,Calm,-,0.01,Rain,Light Rain,0,2012-10-03 15:22:00
11:53 AM,62.1,60.1,93,30.08,6.0,Calm,Calm,-,0.01,,Overcast,0,2012-10-03 15:53:00
12:53 PM,63.0,60.1,90,30.08,6.0,Calm,Calm,-,N/A,,Overcast,0,2012-10-03 16:53:00
1:16 PM,64.4,60.8,88,30.09,6.0,Calm,Calm,-,N/A,,Overcast,0,2012-10-03 17:16:00
1:50 PM,64.4,60.8,88,30.08,6.0,WSW,3.5,-,N/A,,Overcast,250,2012-10-03 17:50:00
1:53 PM,64.0,60.1,87,30.07,6.0,West,3.5,-,N/A,,Overcast,260,2012-10-03 17:53:00
2:10 PM,64.4,60.8,88,30.08,10.0,WSW,3.5,-,N/A,,Overcast,250,2012-10-03 18:10:00
2:53 PM,64.9,60.1,84,30.06,6.0,West,3.5,-,N/A,,Haze,280,2012-10-03 18:53:00
3:23 PM,64.4,60.8,88,30.09,6.0,Calm,Calm,-,N/A,,Haze,0,2012-10-03 19:23:00
3:53 PM,64.9,60.1,84,30.08,6.0,Calm,Calm,-,N/A,,Overcast,0,2012-10-03 19:53:00
4:53 PM,64.9,60.1,84,30.08,10.0,Calm,Calm,-,N/A,,Overcast,0,2012-10-03 20:53:00
5:18 PM,64.4,60.8,88,30.10,10.0,ENE,3.5,-,N/A,,Overcast,60,2012-10-03 21:18:00
5:49 PM,64.4,60.8,88,30.11,10.0,Calm,Calm,-,N/A,,Overcast,0,2012-10-03 21:49:00
5:53 PM,64.0,60.1,87,30.09,10.0,NE,3.5,-,N/A,,Overcast,40,2012-10-03 21:53:00
6:35 PM,62.6,59.0,88,30.11,10.0,Calm,Calm,-,N/A,,Overcast,0,2012-10-03 22:35:00
6:53 PM,63.0,59.0,87,30.10,10.0,NE,3.5,-,N/A,,Overcast,50,2012-10-03 22:53:00
7:53 PM,62.1,59.0,90,30.11,10.0,NE,4.6,-,N/A,,Overcast,50,2012-10-03 23:53:00
8:53 PM,62.1,59.0,90,30.12,10.0,Calm,Calm,-,N/A,,Overcast,0,2012-10-04 00:53:00
9:53 PM,62.1,59.0,90,30.13,10.0,Calm,Calm,-,N/A,,Overcast,0,2012-10-04 01:53:00
10:53 PM,62.1,59.0,90,30.14,10.0,Calm,Calm,-,N/A,,Overcast,0,2012-10-04 02:53:00
11:53 PM,62.1,59.0,90,30.14,9.0,Calm,Calm,-,N/A,,Overcast,0,2012-10-04 03:53:00